Regional Weather Roundup
Issued by NWS Cleveland, OH

Home | Current Version | Previous Version | Text Only | Print | Product List | Glossary Off
Versions: 1 2 3 4 5 6 7 8 9 10 11 12 13 14 15 16 17 18 19 20 21 22 23 24 25 26 27 28 29 30 31 32 33 34 35 36 37 38 39 40 41 42 43 44 45 46 47 48 49 50

000
ASUS41 KCLE 220302
RWRCLE
OHIO REGIONAL WEATHER ROUNDUP
NATIONAL WEATHER SERVICE CLEVELAND, OH
1000 PM EST SUN DEC 21 2014

NOTE: "FAIR" INDICATES FEW OR NO CLOUDS BELOW 12,000 FEET WITH NO
SIGNIFICANT WEATHER AND/OR OBSTRUCTIONS TO VISIBILITY.

OHZ001>008-015>018-024>027-034-035-043-044-220400-
   NORTHWEST OHIO

CITY           SKY/WX    TMP DP  RH WIND       PRES   REMARKS
DEFIANCE       CLEAR     28  23  81 E6        30.18S WCI  22
FINDLAY        CLEAR     29  22  75 E6        30.17F WCI  23
TOLEDO EXPRESS PTCLDY    27  22  81 E3        30.19F
TOLEDO EXEC    CLEAR     27  22  81 E8        30.21F WCI  19
LIMA           CLEAR     30  23  75 SE8       30.16S WCI  22
$$

OHZ009>014-019>023-028>033-038-089-220400-
   NORTHEAST OHIO

CITY           SKY/WX    TMP DP  RH WIND       PRES   REMARKS
CLE-HOPKINS    MOCLDY    28  20  71 E5        30.25S WCI  23
CLE-LAKEFRONT  PTCLDY    31  21  66 SE5       30.23S WCI  26
CUY CO. ARPT   NOT AVBL
LORAIN-ELYRIA  PTCLDY    24  21  88 SE3       30.22S FOG
ASHTABULA      CLOUDY    30  21  69 SE7       30.24F WCI  23
AKRON-CANTON   PTCLDY    26  19  74 E6        30.20S WCI  19
WOOSTER        PTCLDY    24  20  84 E5        30.20S WCI  18
MANSFIELD      CLEAR     23  20  88 E5        30.18S WCI  17
YOUNGSTOWN     PTCLDY    26  20  77 E5        30.21F WCI  20
$$

OHZ042-051>053-060>062-070>072-077>081-220400-
  SOUTHWEST OHIO

CITY           SKY/WX    TMP DP  RH WIND       PRES   REMARKS
CINC-COVINGTON PTCLDY    29  23  78 E5        30.12F WCI  24
CINC-LUNKEN    CLEAR     24  23  96 CALM      30.16F
HAMILTON       CLEAR     24  22  91 E3        30.16F
DAYTON         PTCLDY    27  24  89 SE7       30.15F WCI  19
WRIGHT-PAT AFB CLEAR     27  23  85 NE3       30.15F
DAYTON GENERAL CLEAR     29  25  85 E6        30.13F WCI  23
WILMINGTON     CLEAR     27  23  85 E6        30.13F WCI  20
$$

OHZ036-037-039>041-045>050-054>059-063>069-073>076-082>088-220400-
  CENTRAL AND SOUTHEAST OHIO

CITY           SKY/WX    TMP DP  RH WIND       PRES   REMARKS
COLUMBUS       MOCLDY    29  21  72 E3        30.18F
OSU AIRPORT    CLEAR     27  21  78 E6        30.17F WCI  20
BOLTON FIELD   NOT AVBL
RICKENBACK AFB NOT AVBL
NEWARK         CLEAR     28  22  78 CALM      30.18F
MARION         FAIR      23  19  85 E7        30.18F FOG     WCI  15
LANCASTER      CLEAR     28  22  78 CALM      30.18F
ZANESVILLE     CLEAR     27  21  78 NE3       30.19S
NEW PHILLY     PTCLDY    24  20  84 CALM      30.22R
$$


USA.gov is the U.S. government's official web portal to all federal, state and local government web resources and services.